This is the latest recevied weather packets stored in our database for station/object IZ4UFQ-10. If no packets are shown the sender has not sent any weather packets the latest 10 day(s).
| Time | Temp. | Humidity | Pressure | Rain* | Wind** | Luminosity | Snow |
|---|---|---|---|---|---|---|---|
| 1777287018 | 22.22° C | 55% | 1017.4 hPa | 0 mm | - | 817 W/m² | - |
| 1777286717 | 22.78° C | 56% | 1017.4 hPa | 0 mm | - | 821 W/m² | - |
| 1777286417 | 22.22° C | 55% | 1017.4 hPa | 0 mm | - | 816 W/m² | - |
| 1777286117 | 22.22° C | 56% | 1017.5 hPa | 0 mm | - | 810 W/m² | - |
| 1777285817 | 22.22° C | 59% | 1017.5 hPa | 0 mm | - | 816 W/m² | - |
| 1777285516 | 21.67° C | 60% | 1017.5 hPa | 0 mm | - | 816 W/m² | - |
| 1777285216 | 21.67° C | 59% | 1017.6 hPa | 0 mm | - | 807 W/m² | - |
| 1777284916 | 21.67° C | 60% | 1017.7 hPa | 0 mm | - | 816 W/m² | - |
| 1777284615 | 21.67° C | 60% | 1017.6 hPa | 0 mm | - | 803 W/m² | - |
| 1777284315 | 22.22° C | 59% | 1017.6 hPa | 0 mm | - | 807 W/m² | - |
| 1777284015 | 22.22° C | 59% | 1017.6 hPa | 0 mm | - | 793 W/m² | - |
| 1777283715 | 21.67° C | 60% | 1017.6 hPa | 0 mm | - | 795 W/m² | - |
| 1777283414 | 21.67° C | 60% | 1017.7 hPa | 0 mm | - | 784 W/m² | - |
| 1777283114 | 21.67° C | 61% | 1017.8 hPa | 0 mm | - | 793 W/m² | - |
| 1777282814 | 21.11° C | 61% | 1017.9 hPa | 0 mm | - | 770 W/m² | - |
| 1777282513 | 21.67° C | 61% | 1017.9 hPa | 0 mm | - | 772 W/m² | - |
| 1777282213 | 21.67° C | 61% | 1018 hPa | 0 mm | - | 756 W/m² | - |
| 1777281913 | 21.67° C | 60% | 1018 hPa | 0 mm | - | 763 W/m² | - |
| 1777281613 | 21.67° C | 60% | 1018.1 hPa | 0 mm | - | 758 W/m² | - |
| 1777281312 | 21.67° C | 62% | 1018.1 hPa | 0 mm | - | 744 W/m² | - |
| 1777281012 | 21.11° C | 62% | 1018.1 hPa | 0 mm | - | 735 W/m² | - |
| 1777280712 | 20.56° C | 63% | 1018.3 hPa | 0 mm | - | 728 W/m² | - |
| 1777280412 | 20.56° C | 63% | 1018.3 hPa | 0 mm | - | 721 W/m² | - |
| 1777280111 | 20.56° C | 63% | 1018.4 hPa | 0 mm | - | 707 W/m² | - |
| 1777279811 | 20.56° C | 63% | 1018.4 hPa | 0 mm | - | 700 W/m² | - |
* Rain latest hour (hover to see other rain measurements)
** Current wind speed in m/s (hover to see current wind gust speed)